Terminal Aerodrome Forecast
Issued by NWS

Home | Current Version | Previous Version | Text Only | Print | Product List | Glossary Off
Versions: 1 2 3 4 5 6 7 8 9 10 11 12 13 14 15 16 17 18 19 20 21 22 23 24 25 26 27 28 29 30 31 32 33 34

000
FTUS43 KLOT 251400 AAB
TAFMDW
TAF AMD
KMDW 251401Z 2514/2612 29012KT P6SM FEW250
      TEMPO 2514/2515 5SM BR
     FM252000 30016G23KT P6SM FEW100
     FM252300 29010KT P6SM FEW250
     FM260700 32007KT P6SM SKC=

USA.gov is the U.S. government's official web portal to all federal, state and local government web resources and services.